Regional Weather Roundup
Issued by NWS Cleveland, OH

Home | Current Version | Previous Version | Text Only | Print | Product List | Glossary Off
Versions: 1 2 3 4 5 6 7 8 9 10 11 12 13 14 15 16 17 18 19 20 21 22 23 24 25 26 27 28 29 30 31 32 33 34 35 36 37 38 39 40 41 42 43 44 45 46 47 48 49 50

000
ASUS41 KCLE 282112
RWRCLE
OHIO REGIONAL WEATHER ROUNDUP
NATIONAL WEATHER SERVICE WILMINGTON, OH
500 PM EDT SUN AUG 28 2016

NOTE: "FAIR" INDICATES FEW OR NO CLOUDS BELOW 12,000 FEET WITH NO
SIGNIFICANT WEATHER AND/OR OBSTRUCTIONS TO VISIBILITY.

OHZ001>008-015>018-024>027-034-035-043-044-282200-
   NORTHWEST OHIO

CITY           SKY/WX    TMP DP  RH WIND       PRES   REMARKS
DEFIANCE       FAIR      86  70  58 N7        30.17F HX  90
FINDLAY        FAIR      87  65  47 NE10      30.16F
TOLEDO EXPRESS FAIR      80  70  71 NW3       30.17F
TOLEDO EXEC    FAIR      80  70  71 CALM      30.18F
LIMA           FAIR      87  75  67 N3        30.17F HX  96
$$

OHZ009>014-019>023-028>033-038-089-282200-
   NORTHEAST OHIO

CITY           SKY/WX    TMP DP  RH WIND       PRES   REMARKS
CLE-HOPKINS    PTSUNNY   87  70  56 N12       30.18F HX  92
CLE-LAKEFRONT  FAIR      84  75  74 N10       30.16F HX  92
CUY CO. ARPT   MOSUNNY   86  73  66 N14       30.19F HX  93
LORAIN-ELYRIA  TSTM      74  66  76 NW21G36   30.21R
ASHTABULA      FAIR      83  73  72 N8        30.19R
AKRON-CANTON   FAIR      91  70  49 NW9       30.15F THUNDER HX  96
WOOSTER        TSTM      71  65  81 SE3       30.18S
MANSFIELD      FAIR      88  69  53 N9        30.18F HX  92
YOUNGSTOWN     FAIR      87  69  54 NW7       30.17F HX  91
$$

OHZ042-051>053-060>062-070>072-077>081-282200-
  SOUTHWEST OHIO

CITY           SKY/WX    TMP DP  RH WIND       PRES   REMARKS
CINC-COVINGTON FAIR      93  71  48 CALM      30.15S HX 100
CINC-LUNKEN    MOSUNNY   93  73  52 VRB3      30.13S HX 102
HAMILTON       FAIR      90  72  55 N3        30.15R HX  97
DAYTON         FAIR      88  70  55 NW7       30.18S HX  93
WRIGHT-PAT AFB FAIR      90  70  52 VRB1      30.16R HX  95
DAYTON GENERAL CLOUDY    90  72  55 CALM      30.15S HX  97
WILMINGTON     FAIR      86  72  62 E3        30.16S HX  92
$$

OHZ036-037-039>041-045>050-054>059-063>069-073>076-082>088-282200-
  CENTRAL AND SOUTHEAST OHIO

CITY           SKY/WX    TMP DP  RH WIND       PRES   REMARKS
COLUMBUS       FAIR      90  70  51 VRB3      30.13F HX  95
OSU AIRPORT    FAIR      89  72  56 CALM      30.15S HX  96
BOLTON FIELD   SUNNY     90  73  58 CALM      30.16S HX  98
RICKENBACK AFB FAIR      88  72  58 CALM      30.14F HX  95
NEWARK         FAIR      90  70  51 VRB5      30.14F HX  95
MARION         FAIR      88  71  57 VRB5      30.17F HX  94
LANCASTER      FAIR      91  73  55 NE3       30.15S HX  99
ZANESVILLE     FAIR      90  70  51 N6        30.14F HX  95
NEW PHILLY     FAIR      92  67  43 CALM      30.14F HX  95
$$



USA.gov is the U.S. government's official web portal to all federal, state and local government web resources and services.